Theta_e
314 315 315 315 316 316 316 316 317 317 317 318 318 319 318 319 320 323 324 324 324 323 324 325 325 324 323 323 323 323 324 324 325 325 326 326 325 328 328 334 340 340 340 342 345
313 314 314 315 315 315 316 316 316 316 316 317 317 317 317 318 319 323 323 324 322 324 324 325 325 325 324 324 324 325 325 325 325 325 325 325 325 325 325 328 329 336 339 341 344
313 313 313 314 314 315 315 316 316 316 316 316 316 316 316 317 322 325 322 321 323 323 325 325 325 325 326 324 324 325 326 325 324 324 324 324 324 324 325 326 327 330 334 341 344
314 314 315 315 315 316 316 316 316 316 317 317 318 318 317 316 324 325 322 322 322 321 323 325 325 326 327 327 325 325 324 324 324 323 323 324 324 324 324 326 326 328 331 341 342
316 316 315 315 316 316 317 317 316 317 319 320 320 320 320 321 320 320 320 320 320 323 323 324 325 325 327 326 325 325 324 323 323 323 323 323 324 324 324 323 324 326 329 335 342
317 317 318 320 320 320 320 320 320 320 320 320 320 320 317 321 321 319 320 321 321 321 322 324 325 325 325 325 325 324 325 324 323 322 322 323 323 323 323 323 322 324 329 332 337
319 320 320 319 319 319 319 320 320 320 319 319 317 315 314 319 320 320 320 320 320 320 321 322 322 322 324 325 324 325 326 325 324 323 324 323 324 324 323 323 323 323 326 330 334
319 319 319 317 316 314 311 310 312 313 313 314 314 314 317 319 317 316 317 319 320 320 322 322 321 321 322 323 324 326 326 327 326 325 325 324 325 324 324 325 325 324 325 327 331
317 315 313 311 311 309 309 307 307 308 311 315 316 315 318 317 316 320 323 324 325 325 325 325 325 324 323 324 325 325 326 326 326 326 325 325 325 325 326 326 325 325 325 325 329
313 310 309 310 313 316 315 310 311 312 315 313 314 316 317 317 319 319 321 323 324 324 325 325 326 328 327 327 328 327 327 326 327 327 326 326 326 326 325 325 326 326 326 326 327
311 312 314 314 311 311 309 316 318 319 317 319 321 318 319 319 319 318 322 321 320 323 327 325 328 330 328 328 328 327 327 327 327 327 327 327 327 326 326 326 326 325 326 326 326
309 310 309 306 303 304 309 318 314 312 315 314 315 316 316 316 316 316 316 318 319 322 323 326 328 327 327 327 327 327 328 329 328 327 328 328 327 326 326 326 326 326 326 326 326
302 302 301 301 300 305 316 313 311 312 316 315 314 314 315 314 315 315 315 316 318 320 321 324 326 327 327 327 327 328 328 329 329 328 328 327 327 326 326 326 325 325 325 325 326
302 303 302 303 302 309 313 310 310 312 319 318 314 315 314 313 315 315 315 315 318 319 320 322 322 323 324 327 327 328 327 327 327 327 329 326 330 328 327 327 326 325 325 325 325
304 304 304 303 309 309 312 305 310 315 322 314 314 314 313 313 314 316 314 315 317 318 319 322 323 323 324 324 324 328 325 326 326 326 326 327 328 328 327 327 327 326 324 323 322
299 300 300 302 305 310 306 303 313 319 318 314 313 314 314 314 314 314 315 315 316 317 319 318 318 319 321 323 324 325 325 325 325 325 330 328 328 331 328 327 325 321 320 319 319
299 299 299 300 307 305 304 310 316 317 313 314 313 312 313 314 315 316 318 319 320 321 321 322 322 320 318 320 322 323 327 331 332 330 332 327 328 330 325 322 320 319 317 317 317
299 299 299 301 301 302 307 313 316 313 314 312 311 312 313 313 314 314 317 319 317 317 320 320 320 320 317 318 320 322 324 333 336 331 330 328 329 329 322 318 316 315 315 314 314
299 300 302 300 297 300 309 314 312 311 311 311 312 312 313 313 313 314 315 316 314 314 318 318 319 317 316 315 316 320 322 321 326 326 329 325 326 322 320 317 316 315 315 313 312
301 301 302 298 297 304 309 312 310 310 309 309 310 309 310 312 312 313 313 314 313 312 312 313 315 315 313 312 312 315 315 322 323 327 324 323 324 324 321 317 316 315 313 312 312
299 302 302 297 297 304 311 308 307 307 307 308 308 308 309 309 309 310 309 312 312 311 309 310 312 313 313 313 313 313 314 314 315 316 319 323 322 315 313 313 314 313 311 310 309
300 304 301 296 305 305 307 306 302 305 306 307 307 307 307 307 308 308 308 308 309 309 309 309 310 311 310 310 312 310 313 313 314 316 313 313 317 315 312 311 310 309 308 308 308
301 302 301 304 307 306 305 304 303 304 304 304 305 305 305 306 306 307 307 307 307 308 307 309 310 310 307 308 310 312 312 311 311 310 312 315 313 315 314 309 308 307 306 307 307
300 302 301 302 302 304 304 303 302 301 302 302 303 303 304 305 305 305 305 305 306 306 304 305 306 306 307 306 307 307 307 309 312 312 309 312 311 309 308 308 306 305 305 306 306
300 301 301 303 303 303 303 303 303 302 302 302 303 303 303 304 304 304 304 305 305 305 305 305 306 304 304 305 305 306 306 307 307 308 310 308 307 306 306 305 304 304 304 305 305
294 299 298 300 300 302 301 302 302 303 303 303 304 304 305 305 305 305 305 305 305 304 305 305 307 306 306 305 304 304 304 304 304 304 304 305 304 305 304 303 303 303 305 304 304
297 297 299 298 299 300 301 300 301 301 302 302 302 302 303 303 302 302 303 303 304 304 304 305 306 306 306 304 303 305 305 303 304 304 304 304 304 304 304 304 304 304 304 303 305
Wind_Speed
11 11 11 11 10 10 10 11 11 13 15 16 17 17 18 20 20 15 15 10 9 11 7 8 10 10 12 15 13 15 13 15 19 18 11 3 8 10 8 11 8 10 12 4 23
12 11 12 13 11 11 12 12 12 13 15 15 17 19 19 20 20 19 16 16 17 9 5 9 11 12 17 15 14 12 14 20 14 14 15 14 11 14 11 14 15 13 10 5 22
14 13 13 15 13 13 14 13 14 14 16 16 16 16 19 20 21 2 8 11 10 7 8 11 13 16 19 20 16 20 18 19 19 21 17 19 18 18 18 15 20 17 19 16 21
16 14 14 15 14 15 15 15 15 15 16 17 17 18 15 15 8 1 6 8 11 13 12 13 16 20 19 18 20 14 20 23 23 20 22 18 21 23 24 20 21 8 9 21 24
16 15 15 15 15 16 16 16 17 16 17 17 17 18 18 12 23 18 21 21 16 11 14 16 16 18 20 18 17 16 20 26 25 24 23 24 23 24 26 29 24 17 12 20 24
16 16 16 15 16 17 17 16 16 15 15 16 14 14 14 22 7 7 10 9 10 15 17 15 16 16 16 21 21 25 27 27 26 27 27 23 25 26 32 29 29 25 17 20 25
18 19 17 15 13 13 15 15 16 16 16 14 13 14 19 27 16 16 18 23 23 22 21 20 19 20 17 19 22 23 23 24 23 27 25 29 27 27 32 31 28 25 22 22 23
17 17 17 15 13 12 12 12 15 15 13 10 15 14 18 15 19 19 16 19 21 22 23 22 23 26 25 25 30 25 23 23 23 23 25 16 21 19 22 26 29 28 26 25 24
17 15 14 14 13 15 17 18 18 18 17 19 20 9 17 12 9 7 5 6 5 8 9 11 11 22 21 20 20 22 24 26 25 21 15 19 22 16 8 12 17 21 24 28 23
17 16 16 17 20 24 22 20 22 23 17 11 10 8 21 13 6 8 6 6 9 9 9 12 11 13 16 17 20 21 21 24 21 16 22 15 20 16 23 14 18 23 24 26 25
20 20 22 21 18 17 13 7 7 7 11 14 9 17 7 8 12 16 7 8 13 17 17 20 15 19 22 23 24 24 27 27 23 17 21 23 23 17 21 27 23 26 24 26 26
15 14 12 10 8 5 1 4 1 3 11 20 25 26 27 22 19 25 16 18 16 19 19 19 25 24 23 24 25 25 27 26 24 22 22 23 26 24 23 20 26 26 30 28 28
11 10 9 7 6 5 4 5 1 4 8 12 15 14 9 9 16 17 5 18 22 23 20 23 24 14 22 25 26 25 26 25 25 22 23 22 29 24 27 33 35 32 31 31 27
12 10 9 5 3 4 5 1 4 4 6 8 8 7 7 4 6 8 6 8 11 18 19 20 23 27 25 25 19 27 21 22 22 19 17 17 22 22 16 8 8 15 21 23 26
9 9 8 13 3 6 5 1 4 3 6 5 7 6 6 8 6 8 5 7 13 13 12 17 13 12 19 24 24 33 18 22 20 19 18 25 14 20 19 23 21 9 9 12 12
5 6 6 5 6 6 10 2 2 5 8 5 3 4 8 8 6 5 7 7 9 11 13 19 23 21 11 11 17 19 19 20 18 11 11 28 17 26 18 11 6 12 13 12 13
3 3 6 9 6 9 7 5 6 7 4 7 3 3 4 3 6 6 8 2 4 6 13 7 9 10 13 17 16 13 13 4 7 10 15 18 15 23 8 14 14 12 15 15 14
1 0 2 4 7 9 9 9 10 6 13 6 2 6 10 3 8 8 13 7 1 11 8 7 10 8 15 7 6 13 6 5 8 13 15 10 8 6 13 13 16 16 15 13 13
2 3 1 6 7 12 13 12 8 9 11 7 9 12 15 9 6 5 6 2 3 6 5 6 7 4 5 7 9 6 17 12 7 8 8 8 10 5 7 10 12 12 12 13 13
1 3 4 5 8 7 10 17 14 12 3 6 13 6 12 11 7 9 7 7 5 1 5 3 7 5 6 2 3 5 10 3 4 7 20 15 18 11 10 14 10 13 16 15 13
3 4 3 5 9 10 9 9 12 19 7 8 13 17 15 13 11 12 5 8 13 8 3 3 4 4 7 6 3 3 2 0 2 1 5 5 3 16 16 11 16 16 21 20 18
2 1 3 11 8 7 9 10 4 11 10 13 14 16 17 16 16 15 14 12 5 7 9 4 4 11 17 10 10 9 5 5 4 3 1 4 3 8 5 13 15 22 24 22 21
1 1 1 4 5 7 11 7 9 11 12 11 11 9 13 17 18 17 16 14 5 7 6 1 4 6 9 11 8 5 5 4 4 4 10 5 6 8 14 18 19 24 28 26 24
3 2 2 3 3 7 10 10 12 6 12 15 14 12 15 16 15 16 13 6 6 11 4 7 13 15 15 16 18 16 17 14 11 5 13 13 24 23 21 21 19 17 20 21 20
2 3 1 4 5 7 6 3 8 9 9 6 7 15 15 16 16 18 18 18 14 18 14 11 18 19 24 24 23 23 21 19 22 19 17 24 24 26 21 23 26 26 20 20 22
5 4 4 4 2 8 5 5 5 2 3 3 8 5 8 10 11 16 15 12 12 7 11 14 15 16 17 18 18 21 22 22 23 25 26 26 26 26 27 26 23 23 24 23 26
2 1 2 3 4 5 6 7 6 3 4 4 2 5 5 7 7 10 11 14 14 13 14 14 7 6 15 17 18 12 17 21 23 23 23 23 23 23 21 20 21 21 22 26 29
Wind_Direction
244 249 257 262 269 281 288 293 301 308 312 315 315 317 323 319 316 314 286 276 249 273 279 298 280 279 276 264 251 263 271 260 262 266 270 251 249 234 276 284 214 210 258 36 160
250 256 265 269 274 278 283 290 296 303 307 311 315 318 321 320 315 298 263 258 255 252 308 293 291 294 286 256 245 240 260 263 288 311 306 292 247 266 246 241 251 224 224 180 168
248 255 260 268 275 278 282 287 293 301 303 306 313 318 320 323 314 208 261 251 231 248 289 286 286 286 283 274 261 253 255 275 301 306 281 274 272 267 263 251 255 241 218 192 183
247 253 261 271 278 279 279 282 287 291 294 301 310 312 315 317 289 10 287 253 261 279 280 280 279 282 281 276 275 259 267 279 275 275 279 265 268 266 266 261 266 267 298 186 196
253 258 263 266 271 278 281 284 287 290 293 299 309 313 314 271 257 287 281 287 288 273 267 266 267 274 271 272 280 270 271 269 270 273 271 271 267 268 269 265 266 256 244 215 208
254 255 260 270 276 280 282 281 279 278 285 295 306 310 301 274 273 259 256 261 279 275 271 255 258 269 290 278 274 279 282 281 277 276 269 266 264 259 257 260 260 253 237 228 222
254 252 255 261 269 275 280 281 278 278 286 294 298 307 283 258 275 264 265 268 268 265 261 255 265 265 266 273 269 274 271 275 267 264 261 257 253 252 257 257 251 242 238 234 228
240 240 244 247 254 261 271 280 281 282 284 281 295 301 269 275 281 275 276 271 265 258 257 263 260 260 258 266 269 269 265 270 269 263 261 264 265 264 261 237 239 246 237 232 228
235 239 243 252 255 269 282 283 279 278 274 280 294 252 265 279 279 284 262 255 266 251 239 245 249 242 242 247 259 256 258 264 274 281 251 239 256 256 284 266 262 255 244 237 228
232 237 245 254 269 280 281 283 286 284 286 275 251 248 249 262 252 297 281 261 258 248 235 234 235 233 219 239 244 253 252 247 252 262 280 258 267 257 260 229 243 248 249 247 230
238 249 258 268 273 279 280 310 278 239 227 242 291 248 284 274 286 275 274 275 274 254 250 247 240 242 237 237 247 266 274 277 282 279 283 281 271 262 260 268 249 254 248 248 242
241 248 252 250 251 243 222 252 312 307 286 259 256 253 263 271 277 275 275 262 258 253 251 246 246 246 259 261 264 266 264 263 271 275 276 279 276 275 261 255 253 252 254 244 247
210 213 211 211 210 179 185 156 64 311 260 266 243 250 243 235 254 264 263 253 245 260 258 252 254 256 240 248 263 259 260 273 274 283 279 285 276 267 262 254 245 250 250 254 248
206 207 200 193 159 195 197 43 329 319 272 171 189 187 182 212 247 236 235 244 233 252 255 257 265 260 264 253 260 269 263 262 270 269 268 264 279 273 272 282 238 249 256 257 250
204 210 203 185 176 176 159 162 318 313 277 112 150 146 181 221 337 177 233 221 247 257 242 254 264 249 252 259 260 265 269 273 277 285 294 265 263 269 258 254 246 266 18 17 357
177 187 184 194 202 209 195 150 262 229 244 149 176 184 224 197 216 293 228 226 263 258 246 258 272 288 274 304 298 300 289 276 269 268 258 255 253 269 261 278 141 76 64 47 25
157 167 179 170 173 212 181 190 240 234 132 163 190 210 272 220 208 259 218 180 327 277 245 293 257 267 258 256 279 301 278 259 225 228 245 261 243 250 78 88 102 95 70 51 38
83 268 214 201 219 180 166 221 234 276 254 110 265 241 245 207 212 251 254 191 111 302 279 287 235 28 20 2 277 266 289 251 268 271 274 349 243 248 111 116 99 88 77 64 44
326 327 181 238 198 184 198 219 212 235 267 257 250 252 256 197 256 235 235 104 298 327 268 297 235 50 18 17 347 323 229 291 285 259 269 241 239 210 145 116 92 78 65 46 39
195 241 217 240 189 191 226 233 238 257 279 263 260 272 268 227 205 228 241 148 190 266 339 122 280 237 122 126 51 359 359 324 245 260 256 257 260 258 130 24 36 41 16 4 0
155 229 272 204 170 202 225 231 263 252 250 260 267 267 268 272 276 265 274 158 189 177 280 264 228 246 283 261 247 182 280 301 281 342 315 280 190 57 75 29 360 351 342 337 341
196 187 295 150 200 208 229 246 330 271 237 254 271 279 280 281 281 266 266 266 146 234 264 300 277 279 277 281 244 294 294 165 238 135 261 273 285 125 92 26 343 328 323 328 330
112 147 284 175 205 222 228 253 261 269 258 260 252 263 280 272 270 267 273 270 210 270 288 237 236 281 272 248 157 253 164 162 189 201 245 251 267 179 290 317 318 315 313 319 318
165 163 210 208 299 262 227 244 241 226 272 269 274 274 280 265 262 268 273 264 226 250 15 312 279 268 266 281 302 274 265 240 207 237 273 267 285 286 295 302 304 298 298 303 302
105 251 117 176 198 219 266 289 246 235 220 247 265 243 254 263 266 263 264 261 212 221 238 232 258 266 267 268 266 268 276 278 271 260 254 277 278 285 283 292 300 297 297 299 307
143 181 204 162 211 206 172 223 266 221 271 282 278 338 309 283 276 274 300 299 278 284 275 251 255 271 279 287 283 276 269 267 267 269 274 281 284 282 284 288 289 302 298 309 308
185 181 285 115 203 234 220 240 235 297 217 289 272 290 275 302 306 316 302 289 280 284 281 271 271 259 267 281 279 279 260 266 272 274 273 273 283 292 293 290 290 290 294 304 294